ONEWEB-0064 (45433 NORAD) Tracking and Keplerian Element Data

This shows tracking and keplerian element data for the satellite.

Feedback or suggestion? Click here.




ElementValue
Catalog45433
NameONEWEB-0064
Epoch Orbit1635
Epoch Day190.25001157
Epoch Year2020
RAAN103.5138
Inclination87.5635
Eccentricity0.0023063
Argument of Perigee265.5624
Mean Anonmoly119.8582
Mean Motion14.89771553
Decay Rate0.00013688
L11 45433U 20020K 20190.25001157 .00013688 00000-0 14173-2 0 9990
L22 45433 87.5635 103.5138 0023063 265.5624 119.8582 14.89771553 16359

Live tracking and technical data element details for ONEWEB-0064 (NORAD 45433). ONEWEB-0064 can be tracked NOW for your location showing map with azimuth and elevation plus other details from your city location.

Track the satellite on the map from your city or location and see movement details for azimuth, elevation, latitude, longitude, range, height, and movement on the map or in text.







IsCatalogInMostPopularTable: catalog: 45433, numindb: 20
Update: records affected: 1



GetName: 45433 ONEWEB-0064

Hit Count: updated at: Fri, 10 Jul 2020 03:46:21 GMT